Location: Boiro
(42.6475°N, 8.8834°W)
Time: 18:44:50
(UTC+01:00)

Transit 2A - Pass Details

Date: 03 December 2021
Orbit: 591 x 967 km, 66.7° (Epoch: 20 January)

Event Time Altitude Azimuth Distance (km) Brightness Sun altitude
Rises 12:20:50 0° 313° (NW) 3,659 9.0 23.5°
Reaches altitude 10° 12:24:27 10° 294° (WNW) 2,688 8.5 23.7°
Maximum altitude 12:28:05 16° 258° (WSW) 2,236 8.5 23.9°
Drops below altitude 10° 12:31:37 10° 223° (SW) 2,593 9.3 24.0°
Sets 12:35:02 0° 202° (SSW) 3,466 10.2 24.2°
